Fort Smith, AR

2:31 AM CST on January 20, 2018 (GMT -0600)
Fort Smith Regional

Weather History for KFSM - October, 2011

Change the Weather History Date:

Sunday, October 16, 2011

  Actual Average Record
Temperature  
Mean Temperature 72 °F 63 °F  
Max Temperature 92 °F 75 °F 92 °F (1989)
Min Temperature 52 °F 51 °F 29 °F (1966)
Degree Days  
Heating Degree Days 0 4  
Month to date heating degree days 3 46  
Since 1 July heating degree days 11 63  
Cooling Degree Days 7 2  
Month to date cooling degree days 85 48  
Year to date cooling degree days 2811 2026  
Growing Degree Days 22 (Base 50)    
Moisture  
Dew Point 49 °F    
Average Humidity 50    
Maximum Humidity 77    
Minimum Humidity 23    
Precipitation  
Precipitation 0.00 in 0.14 in 2.86 in (1915)
Month to date precipitation 0.85 2.14  
Year to date precipitation 33.06 35.55  
Sea Level Pressure  
Sea Level Pressure 29.96 in    
Wind  
Wind Speed 5 mph (South)    
Max Wind Speed 23 mph    
Max Gust Speed 30 mph    
Visibility 10 miles    
Events      
T = Trace of Precipitation, MM = Missing Value Source: NWS Daily Summary

Daily Weather History Graph

Daily Weather History Graph

Search for Another Location

Airport or City:

Trip Planner

Search our weather history database for the weather conditions in past years. The results will help you decide how hot, cold, wet, or windy it might be!

Date:

Astronomy

Oct. 16, 2011 Rise Set
Actual Time 7:24 AM CDT 6:41 PM CDT
Civil Twilight 6:58 AM CDT 7:06 PM CDT
Nautical Twilight 6:29 AM CDT 7:36 PM CDT
Astronomical Twilight 5:59 AM CDT 8:05 PM CDT
Moon 9:37 PM CDT (10/16) 11:32 AM CDT (10/16)
Length of Visible Light 12h 08m
Length of Day
11h 16m
Waning Gibbous, 82% of the Moon is Illuminated
Oct 16
Waning Gibbous
Oct 19
Last Quarter
Oct 26
New
Nov 2
First Quarter
Nov 10
Full

Hourly Weather History & Observations

Time (CDT) Temp. Dew Point Humidity Pressure Visibility Wind Dir Wind Speed Gust Speed Precip Events Conditions
12:53 AM 59.0 °F 48.0 °F 67% 30.03 in 10.0 mi ENE 3.5 mph - N/A   Clear
1:53 AM 59.0 °F 48.0 °F 67% 30.01 in 10.0 mi Calm Calm - N/A   Clear
2:53 AM 57.9 °F 48.0 °F 70% 30.01 in 10.0 mi NE 4.6 mph - N/A   Clear
3:53 AM 57.9 °F 48.0 °F 70% 30.01 in 10.0 mi ENE 3.5 mph - N/A   Clear
4:53 AM 55.9 °F 46.9 °F 72% 30.01 in 10.0 mi Calm Calm - N/A   Clear
5:53 AM 55.9 °F 46.9 °F 72% 30.01 in 10.0 mi NNE 3.5 mph - N/A   Clear
6:53 AM 53.1 °F 46.9 °F 80% 30.01 in 10.0 mi Calm Calm - N/A   Clear
7:53 AM 53.1 °F 46.9 °F 80% 30.02 in 10.0 mi Calm Calm - N/A   Clear
8:53 AM 59.0 °F 50.0 °F 72% 30.04 in 10.0 mi ENE 3.5 mph - N/A   Clear
9:53 AM 64.9 °F 50.0 °F 58% 30.04 in 10.0 mi Calm Calm - N/A   Clear
10:53 AM 73.0 °F 50.0 °F 44% 30.03 in 10.0 mi Calm Calm - N/A   Clear
11:53 AM 82.9 °F 50.0 °F 32% 30.00 in 10.0 mi SSW 13.8 mph - N/A   Clear
12:53 PM 88.0 °F 48.9 °F 26% 29.97 in 10.0 mi WSW 13.8 mph 21.9 mph N/A   Clear
1:53 PM 90.0 °F 48.9 °F 24% 29.92 in 10.0 mi SW 15.0 mph 21.9 mph N/A   Clear
2:53 PM 91.0 °F 48.9 °F 23% 29.91 in 10.0 mi Variable 6.9 mph 21.9 mph N/A   Clear
3:53 PM 91.0 °F 48.9 °F 23% 29.89 in 10.0 mi SSW 5.8 mph - N/A   Clear
4:53 PM 91.0 °F 48.0 °F 23% 29.88 in 10.0 mi SW 11.5 mph - N/A   Clear
5:53 PM 89.1 °F 50.0 °F 26% 29.87 in 10.0 mi South 4.6 mph - N/A   Clear
6:53 PM 82.0 °F 51.1 °F 34% 29.87 in 10.0 mi SSW 5.8 mph - N/A   Clear
7:53 PM 80.1 °F 51.1 °F 36% 29.88 in 10.0 mi South 4.6 mph - N/A   Clear
8:53 PM 81.0 °F 51.1 °F 35% 29.89 in 10.0 mi SSW 6.9 mph - N/A   Clear
9:53 PM 75.9 °F 53.1 °F 45% 29.90 in 10.0 mi SW 3.5 mph - N/A   Clear
10:53 PM 72.0 °F 53.1 °F 51% 29.91 in 10.0 mi Calm Calm - N/A   Clear
11:53 PM 66.9 °F 55.0 °F 66% 29.92 in 10.0 mi Calm Calm - N/A   Clear